Zurück zum Katalog

CZ-6A DEB

AktivPO
NORAD 60701·DEBRIS·🇨🇳 China

Gestartet Aug 6, 2024 von Taiyuan Satellite Launch Center

Loading…

Nächste Überflüge (nächste 24 Stunden)

TLE

AktuellSource: Space-Track

Epoche: Sep 14, 2026, 13:42 UTC

1 60701U 24140DE  26257.57107464  .00000781  00000-0  33881-3 0  9993
2 60701  89.3536 296.5678 0088310 311.3815  47.9806 14.21389282108389

Verfolge CZ-6A DEB in Echtzeit mit AllMySat

Download on the App Store